When you browse on this site, cookies collect data to enhance your experience and personalize the content and advertising you see.
Visit our Privacy Policy to learn more. By continuing to use the site, you agree to this use of cookies and data.
  • In Hungary
  • List of Countries
  • For 7 days
  • Water Temperature
  • Weather Map
  • News
  • Weather Widgets
  • user-avatar
    Login

    Hourly Weather San Carlos

    Today, 23 August, Friday

    Time Temperature Precipitation Wind Pressure Humidity
    00:00 +24°C° 0.5 mm 0 mps 749 mmHg 98%
    01:00 +24°C° 0 mm 0 mps 749 mmHg 98%
    02:00 +24°C° 0.6 mm 0 mps 748 mmHg 98%
    03:00 +24°C° 0.6 mm 0 mps 748 mmHg 99%
    04:00 +24°C° 0.6 mm 0 mps 748 mmHg 99%
    05:00 +24°C° 0 mm 0 mps 748 mmHg 98%
    06:00 +24°C° 0 mm 0 mps 749 mmHg 98%
    07:00 +24°C° 0 mm 0 mps 749 mmHg 97%
    08:00 +27°C° 0.3 mm 0 mps 749 mmHg 88%
    09:00 +29°C° 0.3 mm 0 mps 749 mmHg 78%
    10:00 +31°C° 0.3 mm 0 mps 749 mmHg 68%
    11:00 +32°C° 0.1 mm 0 mps 748 mmHg 61%
    12:00 +33°C° 0.1 mm 0 mps 747 mmHg 54%
    13:00 +35°C° 0.1 mm 0 mps 746 mmHg 46%
    14:00 +36°C° 0 mm 1 mps 746 mmHg 49%
    15:00 +36°C° 0 mm 1 mps 745 mmHg 51%
    16:00 +36°C° 0 mm 2 mps 745 mmHg 53%
    17:00 +33°C° 0.2 mm 1 mps 746 mmHg 67%
    18:00 +30°C° 0.2 mm 1 mps 746 mmHg 80%
    19:00 +26°C° 0.2 mm 0 mps 747 mmHg 93%
    20:00 +26°C° 1 mm 0 mps 747 mmHg 95%
    21:00 +25°C° 1 mm 0 mps 748 mmHg 96%
    22:00 +25°C° 1 mm 0 mps 748 mmHg 98%
    23:00 +25°C° 1.7 mm 0 mps 748 mmHg 98%

    Tomorrow, 24 August, Saturday

    Time Temperature Precipitation Wind Pressure Humidity
    00:00 +25°C° 1.7 mm 0 mps 748 mmHg 98%
    01:00 +25°C° 1.7 mm 0 mps 748 mmHg 98%
    02:00 +24°C° 1.6 mm 0 mps 748 mmHg 98%
    03:00 +24°C° 1.6 mm 0 mps 748 mmHg 99%
    04:00 +24°C° 1.6 mm 0 mps 748 mmHg 99%
    05:00 +24°C° 0 mm 0 mps 748 mmHg 98%
    06:00 +24°C° 0 mm 0 mps 748 mmHg 98%
    07:00 +24°C° 0 mm 0 mps 748 mmHg 98%
    08:00 +27°C° 0 mm 0 mps 748 mmHg 85%
    09:00 +30°C° 0 mm 0 mps 749 mmHg 72%
    10:00 +32°C° 0 mm 0 mps 749 mmHg 59%
    11:00 +35°C° 0 mm 1 mps 748 mmHg 54%
    12:00 +36°C° 0 mm 1 mps 747 mmHg 49%
    13:00 +37°C° 0 mm 1 mps 746 mmHg 44%
    14:00 +37°C° 0 mm 2 mps 746 mmHg 50%
    15:00 +36°C° 0 mm 2 mps 745 mmHg 55%
    16:00 +35°C° 0 mm 2 mps 745 mmHg 60%
    17:00 +32°C° 0.3 mm 2 mps 745 mmHg 70%
    18:00 +31°C° 0.3 mm 1 mps 746 mmHg 80%
    19:00 +27°C° 0.3 mm 0 mps 747 mmHg 89%
    20:00 +26°C° 1.5 mm 0 mps 747 mmHg 92%
    21:00 +26°C° 1.5 mm 0 mps 748 mmHg 94%
    22:00 +25°C° 1.5 mm 0 mps 749 mmHg 96%
    23:00 +25°C° 6.3 mm 0 mps 749 mmHg 97%

    Day after tomorrow, 25 August, Sunday

    Time Temperature Precipitation Wind Pressure Humidity
    00:00 +24°C° 6.3 mm 0 mps 748 mmHg 98%
    01:00 +26°C° 6.3 mm 1 mps 748 mmHg 99%
    02:00 +25°C° 5.3 mm 1 mps 748 mmHg 99%
    03:00 +25°C° 5.3 mm 1 mps 748 mmHg 99%
    04:00 +22°C° 5.3 mm 0 mps 748 mmHg 99%
    05:00 +24°C° 0.5 mm 1 mps 748 mmHg 99%
    06:00 +24°C° 0.5 mm 1 mps 748 mmHg 99%
    07:00 +24°C° 0.5 mm 1 mps 748 mmHg 98%
    08:00 +27°C° 0 mm 1 mps 748 mmHg 89%
    09:00 +29°C° 0 mm 1 mps 748 mmHg 79%
    10:00 +31°C° 0 mm 1 mps 748 mmHg 69%
    11:00 +33°C° 0 mm 1 mps 747 mmHg 60%
    12:00 +35°C° 0 mm 1 mps 747 mmHg 50%
    13:00 +39°C° 0 mm 1 mps 746 mmHg 40%
    14:00 +36°C° 0.2 mm 1 mps 745 mmHg 48%
    15:00 +36°C° 0.2 mm 2 mps 745 mmHg 56%
    16:00 +35°C° 0.2 mm 2 mps 744 mmHg 63%
    17:00 +32°C° 0.3 mm 2 mps 745 mmHg 73%
    18:00 +30°C° 0.3 mm 1 mps 745 mmHg 82%
    19:00 +28°C° 0.3 mm 1 mps 746 mmHg 92%
    20:00 +27°C° 0.4 mm 1 mps 747 mmHg 93%
    21:00 +25°C° 0.4 mm 0 mps 748 mmHg 95%
    22:00 +25°C° 0.4 mm 0 mps 748 mmHg 96%
    23:00 +24°C° 1 mm 0 mps 748 mmHg 97%

    26 August, Monday

    Time Temperature Precipitation Wind Pressure Humidity
    00:00 +24°C° 1 mm 0 mps 748 mmHg 97%
    01:00 +24°C° 1 mm 0 mps 748 mmHg 98%
    02:00 +24°C° 1.9 mm 0 mps 748 mmHg 98%
    03:00 +24°C° 1.9 mm 0 mps 748 mmHg 99%
    04:00 +23°C° 1.9 mm 0 mps 747 mmHg 99%
    05:00 +24°C° 0.1 mm 0 mps 748 mmHg 99%
    06:00 +24°C° 0.1 mm 0 mps 748 mmHg 99%
    07:00 +24°C° 0.1 mm 0 mps 749 mmHg 98%
    08:00 +25°C° 0.1 mm 0 mps 749 mmHg 94%
    09:00 +26°C° 0.1 mm 0 mps 749 mmHg 90%
    10:00 +27°C° 0.1 mm 0 mps 749 mmHg 86%
    11:00 +28°C° 0.1 mm 0 mps 748 mmHg 77%
    12:00 +32°C° 0.1 mm 1 mps 747 mmHg 67%
    13:00 +34°C° 0.1 mm 1 mps 746 mmHg 58%
    14:00 +33°C° 0.1 mm 1 mps 746 mmHg 60%
    15:00 +34°C° 0.1 mm 2 mps 745 mmHg 62%
    16:00 +34°C° 0.1 mm 2 mps 745 mmHg 64%
    17:00 +31°C° 0.2 mm 1 mps 745 mmHg 73%
    18:00 +29°C° 0.2 mm 1 mps 746 mmHg 82%
    19:00 +25°C° 0.2 mm 0 mps 746 mmHg 91%
    20:00 +25°C° 0.6 mm 0 mps 747 mmHg 93%
    21:00 +25°C° 0.6 mm 0 mps 748 mmHg 94%
    22:00 +24°C° 0.6 mm 0 mps 748 mmHg 96%
    23:00 +24°C° 1.9 mm 0 mps 748 mmHg 97%

    27 August, Tuesday

    Time Temperature Precipitation Wind Pressure Humidity
    00:00 +24°C° 1.9 mm 0 mps 748 mmHg 98%
    01:00 +24°C° 1.9 mm 0 mps 747 mmHg 99%
    02:00 +24°C° 0.2 mm 0 mps 748 mmHg 99%
    03:00 +24°C° 0.2 mm 0 mps 748 mmHg 99%
    04:00 +23°C° 0.2 mm 0 mps 748 mmHg 99%
    05:00 +24°C° 0 mm 0 mps 748 mmHg 99%
    06:00 +24°C° 0 mm 0 mps 748 mmHg 98%
    07:00 +24°C° 0 mm 0 mps 748 mmHg 98%
    08:00 +28°C° 0 mm 1 mps 748 mmHg 85%
    09:00 +31°C° 0 mm 1 mps 749 mmHg 71%
    10:00 +33°C° 0 mm 1 mps 749 mmHg 58%
    11:00 +35°C° 0.2 mm 1 mps 748 mmHg 54%
    12:00 +36°C° 0.2 mm 1 mps 747 mmHg 50%
    13:00 +37°C° 0.2 mm 1 mps 746 mmHg 46%
    14:00 +37°C° 0.2 mm 1 mps 745 mmHg 50%
    15:00 +36°C° 0.2 mm 1 mps 745 mmHg 55%
    16:00 +36°C° 0.2 mm 2 mps 744 mmHg 59%
    17:00 +33°C° 0.3 mm 1 mps 745 mmHg 69%
    18:00 +30°C° 0.3 mm 1 mps 746 mmHg 79%
    19:00 +28°C° 0.3 mm 1 mps 746 mmHg 89%
    20:00 +28°C° 1.9 mm 1 mps 747 mmHg 92%
    21:00 +27°C° 1.9 mm 1 mps 747 mmHg 94%
    22:00 +27°C° 1.9 mm 1 mps 748 mmHg 96%
    23:00 +26°C° 2 mm 1 mps 748 mmHg 97%

    28 August, Wednesday

    Time Temperature Precipitation Wind Pressure Humidity
    00:00 +26°C° 2 mm 1 mps 748 mmHg 98%
    01:00 +26°C° 2 mm 1 mps 748 mmHg 99%
    02:00 +26°C° 0.4 mm 1 mps 748 mmHg 99%
    03:00 +24°C° 0.4 mm 0 mps 747 mmHg 99%
    04:00 +23°C° 0.4 mm 0 mps 747 mmHg 99%
    05:00 +23°C° 0 mm 0 mps 748 mmHg 98%
    06:00 +26°C° 0 mm 1 mps 748 mmHg 98%
    07:00 +26°C° 0 mm 1 mps 749 mmHg 98%
    08:00 +28°C° 0 mm 1 mps 749 mmHg 84%
    09:00 +31°C° 0 mm 1 mps 749 mmHg 71%
    10:00 +34°C° 0 mm 1 mps 749 mmHg 57%
    11:00 +35°C° 0.1 mm 1 mps 748 mmHg 52%
    12:00 +37°C° 0.1 mm 1 mps 747 mmHg 47%
    13:00 +39°C° 0.1 mm 1 mps 746 mmHg 42%
    14:00 +38°C° 0.1 mm 2 mps 745 mmHg 47%
    15:00 +37°C° 0.1 mm 2 mps 745 mmHg 52%
    16:00 +36°C° 0.1 mm 2 mps 744 mmHg 57%
    17:00 +34°C° 0.1 mm 2 mps 745 mmHg 67%
    18:00 +31°C° 0.1 mm 2 mps 745 mmHg 78%
    19:00 +29°C° 0.1 mm 1 mps 746 mmHg 88%
    20:00 +28°C° 0.8 mm 1 mps 747 mmHg 91%
    21:00 +27°C° 0.8 mm 1 mps 747 mmHg 94%
    22:00 +24°C° 0.8 mm 0 mps 748 mmHg 97%
    23:00 +24°C° 0.6 mm 0 mps 748 mmHg 97%
    Show more